www.pogodaiklimat.ru
ПОГОДА на Алтнахарре
Время
(UTC), дата
04 9.10
05 9.10
06 9.10
07 9.10
08 9.10
09 9.10
10 9.10
11 9.10
12 9.10
13 9.10
14 9.10
15 9.10
16 9.10
17 9.10
18 9.10
19 9.10
20 9.10
21 9.10
22 9.10
23 9.10
00 10.10
01 10.10
02 10.10
03 10.10
04 10.10
05 10.10
06 10.10
07 10.10
08 10.10
09 10.10
10 10.10
11 10.10
12 10.10
13 10.10
14 10.10
15 10.10
16 10.10
17 10.10
18 10.10
19 10.10
20 10.10
21 10.10
22 10.10
23 10.10
00 11.10
01 11.10
02 11.10
03 11.10
04 11.10
05 11.10
06 11.10
07 11.10
08 11.10
09 11.10
10 11.10
11 11.10
12 11.10
13 11.10
14 11.10
15 11.10
16 11.10
17 11.10
18 11.10
19 11.10
20 11.10
21 11.10
22 11.10
23 11.10
00 12.10
01 12.10
02 12.10
03 12.10
04 12.10
05 12.10
06 12.10
07 12.10
08 12.10
09 12.10
10 12.10
11 12.10
12 12.10
13 12.10
14 12.10
15 12.10
16 12.10
17 12.10
18 12.10
19 12.10
20 12.10
21 12.10
22 12.10
23 12.10
00 13.10
01 13.10
02 13.10
03 13.10
04 13.10
05 13.10
06 13.10
07 13.10
08 13.10
09 13.10
10 13.10
11 13.10
12 13.10
13 13.10
14 13.10
15 13.10
16 13.10
17 13.10
18 13.10
19 13.10
20 13.10
21 13.10
22 13.10
23 13.10
00 14.10
01 14.10
02 14.10
03 14.10
04 14.10
05 14.10
06 14.10
07 14.10
08 14.10
09 14.10
10 14.10
11 14.10
12 14.10
13 14.10
14 14.10
15 14.10
16 14.10
17 14.10
18 14.10
19 14.10
20 14.10
21 14.10
22 14.10
23 14.10
00 15.10
01 15.10
02 15.10
03 15.10
04 15.10
05 15.10
06 15.10
08 15.10
09 15.10
10 15.10
11 15.10
12 15.10
13 15.10
14 15.10
15 15.10
16 15.10
17 15.10
18 15.10
19 15.10
20 15.10
21 15.10
22 15.10
23 15.10
00 16.10
01 16.10
02 16.10
03 16.10
04 16.10
Ветер
(напр.,м/с)
Видим. Явления Облачность Т
(С)
Тd
(С)
f
(%)
Тe
(С)
Тes
(С)
Комфортность P
(гПа)
Po
(гПа)
Тmin
(С)
Tmax
(С)
R
(мм)
R24
(мм)
S
(см)
Ю 5 45 км в посл. час дождь н/о +9.7 +7.8 88 +6 +6 тепло 984.5 974.9
Ю 5 7000 м морось с дождем н/о +10.0 +8.2 89 +7 +7 тепло 984.5 975.0
Ю 5 8000 м дождь н/о +9.6 +8.3 92 +6 +6 тепло 984.7 975.1 +9.3 5
Ю 6 18 км слаб. дождь н/о +9.3 +8.2 93 +6 +6 тепло 984.8 975.2
Ю 6 12 км дождь н/о +9.5 +8.3 92 +6 +6 тепло 984.6 975.0
Ю 4 17 км дождь н/о +9.7 +8.7 93 +7 +7 тепло 984.7 975.1
Ю 5 16 км слаб. дождь н/о +10.8 +9.8 94 +8 +8 тепло 984.6 975.1
Ю 6 30 км в посл. час дождь н/о +11.3 +9.5 89 +8 +8 тепло 984.8 975.3
Ю 4 11 км ливневой дождь н/о +11.2 +9.5 89 +9 +9 тепло 984.6 975.1 3
Ю 6 7000 м сильн. ливневой дождь н/о +10.3 +8.5 89 +7 +7 тепло 985.1 975.5
Ю 6 11 км в посл. час дождь н/о +11.0 +8.9 87 +8 +8 тепло 985.0 975.5
Ю 5 11 км слаб. ливневой дождь н/о +10.6 +9.0 90 +8 +8 тепло 984.9 975.4
Ю 5 7000 м ливневой дождь н/о +11.1 +8.9 86 +8 +8 тепло 985.0 975.5
Ю 6 11 км ливневой дождь н/о +10.7 +8.9 89 +8 +8 тепло 984.7 975.1
Ю 6 16 км дождь н/о +10.9 +9.4 90 +8 +8 тепло 984.8 975.3 +11.6 7
ЮЗ 6 4900 м дождь н/о +10.7 +9.4 92 +7 +7 тепло 984.9 975.3
ЮЗ 5
{14}
8000 м морось с дождем н/о +10.5 +8.9 90 +8 +8 тепло 985.1 975.6
ЮЗ 6 45 км в посл. час дождь н/о +10.5 +8.5 87 +7 +7 тепло 985.8 976.3
ЮЗ 5 45 км в посл. час дождь н/о +10.2 +8.6 90 +7 +7 тепло 986.6 977.0
ЮЗ 5
{14}
35 км в посл. час дождь н/о +10.2 +8.4 89 +7 +7 тепло 986.9 977.3
ЮЗ 7 30 км н/о +10.2 +8.0 86 +6 +6 тепло 987.7 978.1 3
ЮЗ 8
{14}
35 км в посл. час дождь н/о +9.7 +7.8 88 +6 +6 тепло 988.5 978.9
З 6
{13}
13 км в посл. час дождь н/о +9.2 +7.7 90 +5 +5 тепло 989.2 979.6
З 8
{14}
17 км дождь н/о +8.7 +7.6 93 +4 +4 по сезону 990.1 980.5
З 7
{13}
4500 м дождь н/о +8.6 +7.6 93 +4 +4 по сезону 991.2 981.5
З 5 16 км слаб. ливневой дождь н/о +8.3 +6.8 90 +5 +5 тепло 992.4 982.7
З 5 30 км в посл. час дождь н/о +8.2 +6.5 89 +5 +5 тепло 993.3 983.6 +8.2 5
З 4 45 км н/о +8.5 +5.3 80 +6 +6 тепло 994.0 984.3
З 4 45 км н/о +8.9 +5.5 79 +6 +6 тепло 994.9 985.2
ЮЗ 5 30 км н/о +9.3 +6.0 80 +6 +6 тепло 995.3 985.6
З 7 28 км н/о +9.8 +6.0 77 +6 +6 тепло 995.7 986.1
ЮЗ 7 40 км н/о +10.7 +5.4 70 +7 +7 тепло 995.9 986.2
ЮЗ 5 30 км н/о +11.7 +5.7 67 +9 +9 тепло 995.7 986.1
ЮЗ 3 35 км н/о +11.8 +5.2 64 +10 +10 тепло 995.6 986.0
ЮЗ 3 45 км н/о +11.4 +6.3 71 +10 +10 тепло 995.2 985.6
Ю 3 40 км н/о +11.9 +6.3 69 +11 +11 тепло 994.7 985.1
Ю 2 40 км в посл. час дождь н/о +10.7 +7.4 80 +9 +9 тепло 994.1 984.5
Ю 2 50 км н/о +10.0 +7.7 86 +9 +9 тепло 993.3 983.7
В 2 50 км н/о +9.2 +7.2 87 +8 +8 тепло 992.8 983.2 +13.0 0.0
С 2 45 км ливневой дождь н/о +9.8 +7.1 83 +9 +9 тепло 991.8 982.2
СЗ 3 35 км в посл. час дождь н/о +8.8 +7.2 90 +6 +6 тепло 990.7 981.1
С 3 50 км слаб. дождь н/о +8.9 +7.4 90 +6 +6 тепло 989.7 980.1
З 2 18 км ливневой дождь н/о +9.2 +7.8 91 +8 +8 тепло 989.0 979.3
СЗ 2 35 км слаб. дождь н/о +9.2 +7.8 91 +7 +7 тепло 988.4 978.8
ЮЗ 3 35 км слаб. дождь н/о +9.2 +7.7 90 +7 +7 тепло 988.3 978.6 0.8
ЮЗ 2 18 км слаб. ливневой дождь н/о +9.1 +7.7 91 +7 +7 тепло 988.4 978.8
З 1 50 км в посл. час дождь н/о +8.9 +7.5 91 +8 +8 тепло 988.1 978.4
Ю 4 18 км в посл. час дождь н/о +9.9 +8.1 89 +7 +7 тепло 987.8 978.2
Ю 2 50 км в посл. час дождь н/о +8.7 +6.8 88 +7 +7 тепло 987.3 977.6
Ю 3 40 км слаб. морось с дождем н/о +9.1 +7.3 88 +7 +7 тепло 986.8 977.1
Ю 4 6000 м сильн. дождь н/о +9.2 +8.0 92 +6 +6 тепло 986.6 976.9 +8.3 2
Ю 4 9000 м ливневой дождь н/о +9.9 +8.0 88 +7 +7 тепло 986.3 976.7
Ю 3 13 км слаб. дождь н/о +9.7 +8.4 92 +7 +7 тепло 986.3 976.8
Ю 4 50 км в посл. час дождь н/о +10.0 +8.5 90 +7 +7 тепло 986.3 976.8
Ю 4 35 км н/о +12.0 +8.2 78 +10 +10 тепло 986.5 977.0
Ю 4 40 км слаб. ливневой дождь н/о +11.7 +9.2 85 +9 +9 тепло 986.6 977.0
Ю 5 28 км в посл. час дождь н/о +12.9 +8.0 72 +11 +11 тепло 986.2 976.7 2
Ю 5 14 км в посл. час дождь н/о +12.0 +8.4 79 +10 +10 тепло 986.1 976.6
ЮЗ 6 21 км слаб. ливневой дождь н/о +12.3 +9.9 85 +10 +10 тепло 986.4 976.9
ЮЗ 7 18 км ливневой дождь н/о +10.0 +8.0 87 +6 +6 тепло 987.3 977.7
ЮЗ 3 50 км слаб. дождь н/о +9.5 +8.1 91 +7 +7 тепло 987.7 978.1
З 2 30 км дождь н/о +9.3 +8.3 93 +7 +7 тепло 988.0 978.3
ЮЗ 1 6000 м сильн. дождь н/о +9.2 +8.5 95 +8 +8 тепло 988.7 979.1 +13.5 8
З 1 3800 м дождь н/о +8.5 +7.9 96 +8 +8 тепло 989.4 979.7
СЗ 2 5000 м ливневой дождь н/о +8.5 +8.2 98 +6 +6 тепло 990.2 980.6
З 3 45 км в посл. час дождь н/о +8.6 +8.3 98 +6 +6 тепло 991.2 981.5
З 3 45 км в посл. час дождь н/о +8.5 +8.0 97 +6 +6 тепло 992.3 982.6
Ю 2 50 км н/о +7.8 +6.8 93 +6 +6 тепло 993.0 983.3
Ю 3 50 км н/о +8.0 +5.4 84 +6 +6 тепло 993.6 983.8 8
ЮЗ 3 40 км в посл. час дождь н/о +8.2 +6.6 90 +5 +5 тепло 994.1 984.4
Ю 2 50 км в посл. час дождь н/о +8.1 +6.6 90 +6 +6 тепло 994.2 984.4
Ю 3 50 км н/о +8.1 +5.5 84 +6 +6 тепло 994.5 984.8
ЮВ 2 45 км н/о +7.0 +4.8 86 +5 +5 тепло 994.6 984.9
ЮЗ 4 50 км н/о +8.0 +5.5 84 +5 +5 тепло 994.7 985.0
ЮЗ 4 50 км н/о +9.1 +6.2 82 +6 +6 тепло 995.0 985.4 +6.1 8
Ю 4 40 км н/о +8.5 +6.8 89 +5 +5 тепло 995.2 985.5
Ю 4 50 км н/о +8.3 +5.8 84 +5 +5 тепло 995.5 985.8
В 2 45 км н/о +9.3 +6.5 83 +8 +8 тепло 996.1 986.4
Ю 4 40 км н/о +10.5 +8.0 84 +8 +8 тепло 996.5 986.9
Ю 5 45 км в посл. час дождь н/о +11.2 +7.8 80 +8 +8 тепло 996.9 987.3
Ю 4 50 км слаб. ливневой дождь н/о +9.2 +7.4 88 +6 +6 тепло 997.8 988.0 0.0
Ю 4 45 км в посл. час дождь н/о +10.3 +8.1 86 +8 +8 тепло 997.7 988.1
Ю 4 45 км в посл. час дождь н/о +11.1 +7.2 77 +9 +9 тепло 997.9 988.2
Ю 3 45 км в посл. час дождь н/о +11.1 +8.0 81 +9 +9 тепло 997.9 988.3
ЮЗ 3 40 км н/о +10.8 +7.0 77 +9 +9 тепло 998.2 988.5
ЮЗ 3 7000 м сильн. ливневой дождь н/о +9.0 +7.5 90 +7 +7 тепло 998.8 989.1
ЮЗ 3 14 км сильн. ливневой дождь н/о +8.1 +6.4 89 +5 +5 тепло 999.2 989.5 +11.9 2
ЮЗ 3 50 км дождь н/о +7.9 +6.6 91 +5 +5 тепло 999.9 990.2
Ю 4 50 км в посл. час дождь н/о +7.9 +6.7 92 +5 +5 тепло 1000.3 990.5
ЮЗ 2 24 км ливневой дождь н/о +8.1 +6.8 91 +6 +6 тепло 1000.8 991.0
Ю 1 14 км дождь н/о +7.0 +6.1 94 +6 +6 тепло 1001.3 991.4
СЗ 1 50 км ливневой дождь н/о +6.5 +5.6 94 +5 +5 тепло 1001.5 991.6
СЗ 1 50 км слаб. ливневой дождь н/о +5.2 +4.5 95 +4 +4 по сезону 1001.8 991.9 3
В 1 50 км в посл. час дождь н/о +4.5 +3.9 96 +3 +3 по сезону 1002.1 992.1
В 1 40 км н/о +3.7 +3.2 97 +3 +3 по сезону 1002.3 992.4
В 1 50 км н/о +3.0 +2.6 97 +1 +1 по сезону 1002.4 992.4
З 1 50 км н/о +1.0 +0.6 97 -1 -1 по сезону 1002.6 992.6
ЮВ 1 45 км н/о +0.4 +0.1 98 -0 -0 по сезону 1002.6 992.5
С 2 100 м туман н/о +0.1 -0.1 99 -3 -3 прохладно 1002.7 992.6 -0.1 3
З 1 200 м туман н/о -0.2 -0.4 99 -3 -3 прохладно 1003.1 993.0
ЮЗ 1 1400 м в посл. час туман н/о 0.0 -0.1 99 -1 -1 по сезону 1003.3 993.2
З 1 1100 м в посл. час туман н/о +1.7 +1.7 100 +1 +1 по сезону 1003.6 993.5
З 1 40 км в посл. час туман н/о +4.7 +4.7 100 +4 +4 по сезону 1003.2 993.2
ЮВ 1 35 км н/о +8.8 +6.5 85 +8 +8 тепло 1002.7 992.9
ЮВ 2 45 км н/о +10.9 +7.4 79 +10 +10 тепло 1002.4 992.7
СВ 3 50 км н/о +12.0 +6.0 67 +11 +11 тепло 1002.0 992.3
СВ 3 50 км н/о +12.5 +5.8 64 +11 +11 тепло 1001.5 991.9
СВ 3 50 км н/о +11.0 +5.3 68 +9 +9 тепло 1001.3 991.6
ЮЗ 1 50 км н/о +9.1 +5.9 80 +10 +10 тепло 1001.3 991.6
штиль 0 35 км н/о +7.7 +6.1 90 +7 +7 тепло 1001.5 991.7
В 1 50 км н/о +5.1 +3.9 92 +5 +5 тепло 1002.1 992.2 +12.9
Ю 1 50 км н/о +3.4 +2.6 94 +3 +3 по сезону 1002.8 992.8
С 1 50 км н/о +4.1 +3.9 99 +4 +4 по сезону 1003.2 993.3
штиль 0 45 км н/о +4.4 +4.2 99 +3 +3 по сезону 1003.5 993.6
В 2 45 км н/о +3.6 +3.3 98 +1 +1 по сезону 1003.9 993.9
ЮВ 1 30 км н/о +3.5 +3.3 99 +3 +3 по сезону 1004.4 994.4
С 1 45 км н/о +3.2 +3.0 99 +3 +3 по сезону 1004.7 994.7
ЮВ 1 7000 м в посл. час туман н/о +2.3 +2.1 99 +2 +2 по сезону 1005.2 995.1
СЗ 1 1000 м в посл. час туман н/о +2.4 +2.3 99 +2 +2 по сезону 1005.4 995.3
ЮЗ 1 17 км н/о +2.9 +2.8 99 +2 +2 по сезону 1005.6 995.6
В 1 6000 м в посл. час туман н/о +2.2 +2.1 99 +2 +2 по сезону 1005.9 995.8
ЮВ 1 11 км в посл. час туман н/о +1.4 +1.3 99 +1 +1 по сезону 1006.1 996.1
СЗ 1 500 м туман н/о +1.7 +1.7 100 -0 -0 по сезону 1006.6 996.5 +1.2
ЮВ 2 800 м туман н/о +1.2 +1.2 100 -2 -2 по сезону 1006.8 996.7
В 1 200 м туман н/о +2.2 +2.2 100 +2 +2 по сезону 1007.2 997.2
Ю 1 20 км в посл. час туман н/о +4.1 +4.1 100 +4 +4 по сезону 1007.4 997.4
ЮВ 1 50 км н/о +6.2 +6.2 100 +6 +6 тепло 1007.6 997.7
В 2 50 км н/о +8.3 +8.3 100 +6 +6 тепло 1007.7 997.8
З 2 45 км н/о +10.4 +8.6 89 +9 +9 тепло 1007.4 997.6
ЮЗ 2 50 км н/о +11.1 +8.2 82 +10 +10 тепло 1007.1 997.4
В 2 50 км н/о +10.8 +8.4 85 +10 +10 тепло 1007.2 997.4
В 1 45 км н/о +11.0 +8.3 83 +12 +12 тепло 1007.3 997.5
В 1 50 км н/о +10.0 +8.4 90 +9 +9 тепло 1007.1 997.4
ЮЗ 1 50 км н/о +9.3 +7.5 89 +9 +9 тепло 1007.2 997.3
З 2 40 км н/о +7.6 +6.6 93 +5 +5 тепло 1007.4 997.5 +11.4
З 2 40 км н/о +6.7 +6.0 95 +5 +5 тепло 1007.5 997.6
З 1 50 км н/о +6.7 +6.2 97 +7 +7 тепло 1007.4 997.5
СЗ 1 50 км н/о +6.3 +6.0 98 +5 +5 тепло 1007.2 997.3
В 1 40 км в посл. час дождь н/о +6.4 +6.1 98 +6 +6 тепло 1007.2 997.3
З 2 2600 м в посл. час туман н/о +4.4 +4.1 98 +2 +2 по сезону 1006.7 996.8
З 1 200 м туман н/о +3.4 +3.1 98 +3 +3 по сезону 1006.3 996.3 0.2
СЗ 2 2200 м в посл. час туман н/о +2.9 +2.8 99 0 0 по сезону 1005.8 995.8
СЗ 2 50 км н/о +3.8 +3.8 100 +1 +1 по сезону 1005.1 995.1
З 2 50 км н/о +3.6 +3.5 99 +1 +1 по сезону 1004.4 994.4
ЮЗ 1 400 м туман н/о +2.5 +2.4 99 +1 +1 по сезону 1003.9 993.9
З 1 5000 м в посл. час туман н/о +1.7 +1.7 100 -0 -0 по сезону 1003.8 993.7
З 2 400 м туман н/о +1.1 +1.1 100 -3 -3 прохладно 1003.4 993.4 +0.2 0.2
СЗ 3 30 км в посл. час туман н/о +3.7 +3.7 100 -0 -0 по сезону 1003.0 993.0
СЗ 2 50 км н/о +7.0 +6.7 98 +5 +5 тепло 1002.7 992.8
ЮВ 3 40 км н/о +10.6 +7.2 79 +9 +9 тепло 1002.4 992.7
В 5 45 км н/о +11.6 +7.4 75 +9 +9 тепло 1001.8 992.1
В 2 50 км н/о +13.2 +6.7 65 +13 +13 тепло 1001.2 991.6
В 7 50 км н/о +12.8 +6.1 64 +10 +10 тепло 1000.9 991.3
В 5 50 км н/о +13.0 +7.1 67 +11 +11 тепло 1000.9 991.3
В 4 50 км н/о +12.6 +7.6 72 +11 +11 тепло 1000.4 990.8
В 6 50 км н/о +11.2 +7.8 80 +8 +8 тепло 1000.5 990.8
В 5 50 км н/о +10.0 +7.5 84 +7 +7 тепло 1000.4 990.7
В 7 45 км н/о +9.1 +7.3 88 +5 +5 тепло 1000.4 990.7 +13.5
В 6 50 км н/о +8.8 +7.1 89 +5 +5 тепло 1000.0 990.2
СВ 7 50 км н/о +9.1 +7.4 89 +5 +5 тепло 999.4 989.7
В 5 26 км н/о +8.5 +7.0 90 +5 +5 тепло 999.3 989.6
В 5 45 км н/о +9.2 +7.9 92 +6 +6 тепло 999.1 989.3
В 5 50 км н/о +9.4 +7.9 90 +6 +6 тепло 998.6 988.9
В 3 50 км н/о +9.3 +7.8 90 +7 +7 тепло 998.1 988.4
СВ 3 50 км н/о +8.7 +6.9 88 +6 +6 тепло 997.5 987.8
В 6 50 км н/о +9.9 +7.1 83 +6 +6 тепло 996.4 986.7
З 2 50 км н/о +6.0 +4.1 88 +4 +4 по сезону 996.1 986.3
З 5 50 км н/о +7.3 +6.1 92 +3 +3 по сезону 994.9 985.2
Местоположение метеостанции Алтнахарра (Великобритания): широта 58.28 долгота -4.43 высота над уровнем моря 80 м.
В архиве по умолчанию представлена погода на Алтнахарре за последнюю неделю. Архивные данные за месяц целиком и за предыдущие месяцы, начиная с января 2011 года, Вы можете получить, выбрав интересующий диапазон дат из раскрывающегося списка и нажав кнопку "Найти!".
*Определитесь, кто Вы:
Внимание! Время в таблицах - всемирное. Для получения местного времени необходимо прибавить поправку, которая равна 0 ч.
Смотрите также архив погоды в соседних городах и на ближайших метеорологических станциях:
Партнеры нашего сайта:      
Пояснения к столбцам:
  • Ветер - указаны скорость ветра в м/с - средняя за 10 мин, порывы в срок и между сроками (в фигурных скобках) и направление, откуда дует ветер: С - северный,
  • СВ - северо-восточный, В - восточный, ЮВ - юго-восточный, Ю - южный, ЮЗ - юго-западный, З - западный, СЗ - северо-западный.
  • Видимость - горизонтальная дальность видимости в метрах или километрах. При видимости от 1 до 10 км при отсутствии осадков обычно наблюдается дымка, при ухудшении видимости до 1 км и менее - туман. В сухую погоду видимость может ухудшаться дымом, пылью или мглою.
  • Явления - указаны атмосферные явления, наблюдавшиеся в срок или в последний час перед сроком; фигурными скобками обозначены явления, наблюдавшиеся между сроками (за 1-3 часа до срока); квадратными скобками обозначены град или гололедные отложения с указанием их диаметра в мм.
  • Облачность - указаны через наклонную черту общая и нижняя облачность в баллах и высота нижней границы облаков в метрах; квадратными скобками обозначены формы облаков: Ci - перистые, Cs - перисто-слоистые, Cc - перисто-кучевые, Ac - высококучевые, As - высокослоистые, Sc - слоисто-кучевые, Ns - слоисто-дождевые, Cu - кучевые, Cb - кучево-дождевые. Подробнее классификацию облаков см. в Атласе облаков (PDF).
  • T - Температура воздуха - температура, измеренная на высоте 2 м над землей.
  • Td - Температура точки росы - температура, при понижении до которой содержащийся в воздухе водяной пар достигнет насыщения.
  • f - Относительная влажность воздуха - влажноcть воздуха, измеренная на высоте 2 м над землей.
  • Te - Эффективная температура - температура, которую ощущает одетый по сезону человек в тени. Характеристика душности погоды. При расчете учитывается влияние влажности воздуха и скорости ветра на теплоощущения человека.
  • Tes - Эффективная температура на солнце - температура, которую ощущает человек, с поправкой на солнечный нагрев. Характеристика знойности погоды. Зависит от высоты солнца над горизонтом, облачности и скорости ветра. Ночью, в пасмурную погоду, а также при ветре 12 м/с и более поправка равна нулю.
  • P - Атмосферное давление - приведенное к уровню моря атмосферное давление.
  • Po - Атмосферное давление - измеренное на уровне метеостанции атмосферное давление.
  • Tmin - Минимальная температура - минимум температуры воздуха на высоте 2 м над землей.
  • Tmax - Максимальная температура - максимум температуры воздуха на высоте 2 м над землей.
  • R - Количество осадков - Количество выпавших осадков за период времени, мм. При наведении курсора мыши на число - период времени, за который выпало указанное количество осадков.
  • R24 - Количество осадков - Количество выпавших осадков за 24 часа, мм.
  • S - Снежный покров - Высота снежного покрова, см. При наведении курсора мыши на число - состояние снежного покрова и степень покрытия местности в баллах.